SPACEBEE-58 (47464 NORAD) Tracking and Keplerian Element Data

This shows tracking and keplerian element data for the satellite.

Feedback or suggestion? Click here.




ElementValue
Catalog47464
NameSPACEBEE-58
Epoch Orbit1199
Epoch Day101.86234127
Epoch Year2021
RAAN164.4236
Inclination97.4973
Eccentricity0.0013502
Argument of Perigee338.6207
Mean Anonmoly21.4459
Mean Motion15.14248692
Decay Rate2.434E-05
L11 47464U 21006BD 21101.86234127 .00002434 00000-0 13649-3 0 9991
L22 47464 97.4973 164.4236 0013502 338.6207 21.4459 15.14248692 11999

Live tracking and technical data element details for SPACEBEE-58 (NORAD 47464). SPACEBEE-58 can be tracked NOW for your location showing map with azimuth and elevation plus other details from your city location.

Track the satellite on the map from your city or location and see movement details for azimuth, elevation, latitude, longitude, range, height, and movement on the map or in text.







IsCatalogInMostPopularTable: catalog: 47464, numindb: 14
Update: records affected: 1



GetName: 47464 SPACEBEE-58

Hit Count: updated at: Tue, 13 Apr 2021 03:21:20 GMT